Location: Haynersville
(42.7906°N, 73.5707°W)
Time: 21:54:45
(UTC+00:00)

Daily predictions for brighter satellites

Satellite Brightness Start Highest point End
(mag) Time Altitude Azimuth Time Altitude Azimuth Time Altitude Azimuth
Unknown 4.0 22:35:33 10° WSW 22:39:40 64° NNW 22:43:48 10° NE
Unknown 4.0 22:36:05 10° WSW 22:40:12 65° NNW 22:44:20 10° NE
Cosmos 1242 Rocket 4.0 22:37:57 10° NNE 22:40:39 19° ENE 22:43:20 10° ESE
Unknown 4.0 22:37:08 10° WSW 22:41:15 64° NNW 22:45:23 10° NE
Cosmos 1726 Rocket 4.0 22:38:29 10° SSE 22:42:37 40° E 22:46:43 10° NNE
Unknown 4.0 22:40:21 10° WSW 22:44:27 63° NNW 22:48:35 10° NE
Cosmos 1486 Rocket 4.3 22:40:36 10° NNW 22:45:56 77° WSW 22:51:15 10° SSE
Unknown 4.1 22:43:49 10° WSW 22:47:54 58° NNW 22:52:00 10° NE
Okean-O 2.9 22:44:03 10° S 22:48:28 76° WSW 22:52:56 10° NNW
Unknown 4.2 22:45:29 10° WSW 22:49:34 56° NNW 22:53:39 10° NE
Cosmos 1939 Rocket 4.3 22:48:06 10° ESE 22:50:52 18° ENE 22:53:40 10° NNE
Unknown 4.2 22:47:11 10° WSW 22:51:15 55° NNW 22:55:20 10° NE
Cosmos 1354 Rocket 4.0 22:46:11 10° NNW 22:51:23 60° ENE 22:56:32 10° SSE
ASTEX 1 3.6 22:47:49 10° NNE 22:52:38 50° E 22:57:26 10° SSE
COSMOS 2406 4.0 22:47:45 10° N 22:52:52 31° NE 22:57:56 10° ESE
Unknown 4.3 22:48:51 10° WSW 22:52:55 53° NNW 22:56:59 10° NE
Cosmos 2058 Rocket 3.7 22:49:10 10° SSE 22:53:05 34° E 22:57:01 10° NNE
Cosmos 2082 Rocket 4.0 22:50:37 10° NNE 22:53:07 13° NE 22:55:36 10° ENE
Cosmos 2228 3.1 22:50:45 10° S 22:55:03 59° E 22:59:21 10° NNE
Lacrosse 5 rocket 1.4 22:52:27 10° NW 22:56:09 50° NE 23:00:00 10° ESE
Unknown 4.3 22:52:10 10° WSW 22:56:12 51° NNW 23:00:15 10° NE
OAO 2 Rocket 4.5 22:52:01 10° WSW 22:56:47 35° S 23:01:35 10° ESE
Unknown 4.4 22:53:56 10° WSW 22:57:58 49° NNW 23:02:00 10° NE
EO 1 Delta rocket 4.4 22:54:34 10° SE 22:58:47 35° ENE 23:03:04 10° N
Unknown 4.4 22:55:35 10° WSW 22:59:36 48° NNW 23:03:38 10° NE
Cosmos 968 Rocket 3.5 22:55:22 10° NNW 23:00:41 82° ENE 23:05:56 10° SSE
CZ-4C R/B 3.2 22:53:27 10° NW 23:00:49 81° WSW 23:09:06 10° SSE
CSL-04 Debris 4.3 22:55:41 10° SSE 23:00:58 55° ENE 23:06:19 10° N
Unknown 4.4 22:57:11 10° WSW 23:01:12 48° NNW 23:05:13 10° NE
Unknown 4.5 22:57:46 10° WSW 23:01:46 47° NNW 23:05:47 10° NE
FengYun 1-2 T 4.2 22:56:51 10° SSE 23:02:28 73° ENE 23:08:05 10° N
YAOGAN 6 2.6 23:00:32 10° SSE 23:04:09 62° ENE 23:07:47 10° N
Unknown 4.4 23:00:22 10° WSW 23:04:22 48° NNW 23:08:24 10° NE
Cosmos 1908 4.2 23:01:14 10° SE 23:04:28 25° E 23:07:42 10° NE
Ariane Rocket 3.8 23:00:43 10° SE 23:05:03 29° ENE 23:09:24 10° N
Cosmos 921 Rocket 3.1 23:01:59 10° S 23:06:24 58° ESE 23:10:49 10° NNE
CZ-4 R/B 4.3 23:03:23 10° SSE 23:07:29 78° ENE 23:11:37 10° N
Unknown 4.5 23:03:45 10° WSW 23:07:45 46° NNW 23:11:46 10° NE
Cosmos 1470 4.4 23:04:22 10° SSW 23:08:05 38° WNW 23:11:51 10° N
CZ-4 R/B 1.4 23:05:50 10° SSE 23:09:57 80° ENE 23:14:11 10° N
Cosmos 1328 4.2 23:06:40 10° N 23:10:27 39° ENE 23:14:10 10° SSE
COSMO-SKYMED 1 2.7 23:09:03 10° N 23:13:25 82° WNW 23:17:45 10° SSW
Cosmos 1992 Rocket 4.3 23:08:42 10° SSW 23:13:55 74° WNW 23:19:10 10° NNE
Cosmos 1503 Rocket 4.2 23:11:29 10° NNW 23:16:40 75° WSW 23:21:48 10° SSE
Cosmos 2084 3.9 23:12:12 10° SW 23:16:44 67° NW 23:21:12 10° NNE
Cosmos 1844 Rocket 3.1 23:11:09 10° SSW 23:16:47 68° WNW 23:22:26 10° NNE
Cosmos 2239 Rocket 4.5 23:10:47 10° N 23:16:58 87° W 23:23:06 10° S
Meteor 2-10 4.0 23:12:00 10° S 23:16:59 54° E 23:21:54 10° NNE
Meteor 1-16 Rocket 4.1 23:13:19 10° S 23:18:54 76° E 23:24:21 10° NNE
Unknown 3.9 23:17:17 10° NNW 23:19:31 23° NNE 23:20:02 22° NE
USA 116 3.0 23:19:38 10° NNE 23:22:45 80° ESE 23:26:03 10° S
Cosmos 1821 Rocket 4.3 23:17:23 10° NNW 23:23:27 70° W 23:29:33 10° S
Cosmos 1605 Rocket 4.1 23:17:34 10° N 23:23:36 49° ENE 23:29:30 10° SSE
Cosmos 1953 Rocket 3.8 23:21:49 10° NNW 23:26:11 70° W 23:30:29 10° S
Cosmos 1727 Rocket 4.4 23:23:06 10° SSE 23:28:39 36° E 23:34:12 10° NNE
H-2A R/B 3.6 23:30:25 18° ENE 23:30:26 18° ENE 23:33:55 10° NNE
Lacrosse 5 3.4 23:27:33 10° NNW 23:31:26 22° NNE 23:33:32 17° NE
Cosmos 2278 Rocket 2.6 23:28:13 10° S 23:33:28 41° ESE 23:38:45 10° NE
Cosmos 1844 4.3 23:31:27 10° SW 23:37:04 60° WNW 23:42:49 10° NNE
USA 234 4.3 23:35:59 22° ESE 23:37:05 23° ESE 23:42:00 10° S
Cosmos 1934 Rocket 4.1 23:31:32 10° N 23:37:53 85° W 23:44:15 10° S
Cosmos 292 Rocket 3.6 23:33:15 10° SSW 23:37:59 76° ESE 23:42:44 10° NNE
Cosmos 482 Debris 3.9 23:39:25 10° NW 23:44:07 74° NNE 23:44:47 53° E
CZ-2D R/B 3.1 23:40:27 10° SSE 23:44:16 82° ENE 23:48:09 10° N
SL-4 R/B 2.4 23:43:28 10° WNW 23:47:09 49° SW 23:48:40 28° SSE
ATLAS 5 CENTAUR R/B 3.7 23:43:53 10° W 23:47:29 24° NW 23:51:26 10° NNE
Cosmos 1356 4.1 23:47:41 10° SSW 23:51:02 54° WNW 23:54:26 10° N
NOSS 3-2 (A) 4.1 23:47:19 10° S 23:51:22 28° SE 23:51:22 28° SE
